TimeCST,TemperatureF,Dew PointF,Humidity,Sea Level PressureIn,VisibilityMPH,Wind Direction,Wind SpeedMPH,Gust SpeedMPH,PrecipitationIn,Events,Conditions,WindDirDegrees,DateUTC
12:15 AM,15.8,12.9,88,30.05,4.0,NE,8.1,-,N/A,Snow,Light Snow,40,2013-12-20 06:15:00
12:35 AM,15.8,12.7,88,30.05,3.0,NE,9.2,-,N/A,Snow,Light Snow,40,2013-12-20 06:35:00
12:55 AM,15.8,12.9,88,30.05,4.0,NNE,9.2,-,N/A,Snow,Light Snow,30,2013-12-20 06:55:00
1:15 AM,15.8,12.9,88,30.04,3.0,NE,8.1,-,N/A,Snow,Light Snow,40,2013-12-20 07:15:00
1:35 AM,15.8,12.9,88,30.04,4.0,NE,6.9,-,N/A,Snow,Light Snow,50,2013-12-20 07:35:00
1:55 AM,15.8,12.7,88,30.04,4.0,ENE,4.6,-,N/A,Snow,Light Snow,60,2013-12-20 07:55:00
2:15 AM,15.4,12.4,88,30.04,5.0,NE,6.9,-,N/A,Snow,Light Snow,50,2013-12-20 08:15:00
2:35 AM,15.1,12.2,88,30.03,10.0,NE,4.6,-,N/A,,Overcast,50,2013-12-20 08:35:00
2:55 AM,14.5,11.7,88,30.04,7.0,NNE,3.5,-,N/A,,Overcast,20,2013-12-20 08:55:00
3:15 AM,10.9,8.6,90,30.04,10.0,NNE,4.6,-,N/A,,Scattered Clouds,20,2013-12-20 09:15:00
3:35 AM,8.2,5.9,90,30.03,10.0,NNE,5.8,-,N/A,,Clear,20,2013-12-20 09:35:00
3:55 AM,8.4,6.6,92,30.02,10.0,NNE,5.8,-,N/A,,Clear,20,2013-12-20 09:55:00
4:15 AM,7.3,4.6,89,30.02,10.0,NNE,4.6,-,N/A,,Clear,30,2013-12-20 10:15:00
4:35 AM,8.6,6.6,92,30.01,10.0,NNE,3.5,-,N/A,,Clear,30,2013-12-20 10:35:00
4:55 AM,6.1,3.2,88,30.01,10.0,NNE,3.5,-,N/A,,Clear,20,2013-12-20 10:55:00
5:15 AM,7.2,4.5,89,30.01,5.0,NE,3.5,-,N/A,,Clear,40,2013-12-20 11:15:00
5:35 AM,3.7,-0.4,83,30.01,7.0,Calm,Calm,-,N/A,,Clear,0,2013-12-20 11:35:00
5:55 AM,1.0,-2.9,83,30.02,10.0,Calm,Calm,-,N/A,,Clear,0,2013-12-20 11:55:00
6:15 AM,-0.4,-4.2,84,30.02,10.0,Calm,Calm,-,N/A,,Clear,0,2013-12-20 12:15:00
6:35 AM,-0.9,-4.5,85,30.02,10.0,Calm,Calm,-,N/A,,Clear,0,2013-12-20 12:35:00
6:55 AM,0.1,-3.1,86,30.02,10.0,Calm,Calm,-,N/A,,Clear,0,2013-12-20 12:55:00
7:15 AM,-1.1,-5.1,83,30.01,10.0,Calm,Calm,-,N/A,,Clear,0,2013-12-20 13:15:00
7:35 AM,-3.1,-6.7,85,30.01,10.0,Calm,Calm,-,N/A,,Clear,0,2013-12-20 13:35:00
7:55 AM,-0.6,-3.8,86,30.01,10.0,Calm,Calm,-,N/A,,Clear,0,2013-12-20 13:55:00
8:15 AM,-1.1,-4.5,85,30.01,5.0,Calm,Calm,-,N/A,,Clear,0,2013-12-20 14:15:00
8:35 AM,1.9,-1.7,85,30.02,10.0,Calm,Calm,-,N/A,,Clear,0,2013-12-20 14:35:00
8:55 AM,0.5,-2.7,86,30.02,10.0,Calm,Calm,-,N/A,,Clear,0,2013-12-20 14:55:00
9:15 AM,3.2,0.3,88,30.01,10.0,Calm,Calm,-,N/A,,Clear,0,2013-12-20 15:15:00
9:35 AM,6.4,3.6,88,30.01,7.0,Calm,Calm,-,N/A,,Clear,0,2013-12-20 15:35:00
9:55 AM,9.5,7.3,91,30.01,10.0,NE,3.5,-,N/A,,Clear,50,2013-12-20 15:55:00
10:15 AM,12.4,10.4,92,30.00,10.0,NE,4.6,-,N/A,,Clear,40,2013-12-20 16:15:00
10:35 AM,14.4,12.7,93,29.99,10.0,Calm,Calm,-,N/A,,Clear,0,2013-12-20 16:35:00
10:55 AM,15.4,13.8,93,29.98,10.0,ENE,5.8,-,N/A,,Clear,60,2013-12-20 16:55:00
11:15 AM,16.2,13.6,90,29.97,10.0,NE,5.8,-,N/A,,Clear,50,2013-12-20 17:15:00
11:35 AM,18.1,12.2,78,29.95,10.0,Calm,Calm,-,N/A,,Clear,0,2013-12-20 17:35:00
11:55 AM,19.6,11.1,70,29.95,10.0,Calm,Calm,-,N/A,,Clear,0,2013-12-20 17:55:00
12:15 PM,20.5,11.3,68,29.95,10.0,ENE,3.5,-,N/A,,Clear,70,2013-12-20 18:15:00
12:35 PM,21.2,11.3,66,29.94,10.0,ESE,4.6,-,N/A,,Clear,110,2013-12-20 18:35:00
12:55 PM,20.3,10.9,67,29.93,10.0,ENE,3.5,-,0.01,,Clear,70,2013-12-20 18:55:00
1:15 PM,21.4,11.1,65,29.93,10.0,Calm,Calm,-,0.02,,Clear,0,2013-12-20 19:15:00
1:35 PM,22.1,11.5,64,29.92,10.0,Calm,Calm,-,0.02,,Clear,0,2013-12-20 19:35:00
1:55 PM,20.3,11.3,68,29.92,10.0,Calm,Calm,-,0.02,,Scattered Clouds,0,2013-12-20 19:55:00
2:15 PM,21.2,11.3,66,29.92,10.0,Calm,Calm,-,N/A,,Mostly Cloudy,0,2013-12-20 20:15:00
2:35 PM,20.8,11.3,67,29.91,10.0,Calm,Calm,-,N/A,,Overcast,0,2013-12-20 20:35:00
2:55 PM,19.4,11.1,70,29.90,10.0,Calm,Calm,-,N/A,,Mostly Cloudy,0,2013-12-20 20:55:00
3:15 PM,17.8,10.2,72,29.91,10.0,NNE,4.6,-,N/A,,Scattered Clouds,30,2013-12-20 21:15:00
3:35 PM,18.3,11.1,73,29.90,10.0,NNE,3.5,-,N/A,,Clear,30,2013-12-20 21:35:00
3:55 PM,18.3,11.1,73,29.90,10.0,Calm,Calm,-,N/A,,Mostly Cloudy,0,2013-12-20 21:55:00
4:15 PM,19.0,12.0,74,29.89,10.0,Calm,Calm,-,N/A,,Overcast,0,2013-12-20 22:15:00
4:35 PM,18.1,12.6,79,29.88,10.0,Calm,Calm,-,N/A,,Overcast,0,2013-12-20 22:35:00
4:55 PM,18.1,12.2,78,29.87,10.0,Calm,Calm,-,N/A,,Overcast,0,2013-12-20 22:55:00
5:15 PM,17.6,12.4,80,29.87,10.0,Calm,Calm,-,N/A,,Overcast,0,2013-12-20 23:15:00
5:35 PM,15.6,11.7,84,29.87,10.0,Calm,Calm,-,N/A,,Overcast,0,2013-12-20 23:35:00
5:55 PM,14.0,10.6,86,29.88,10.0,Calm,Calm,-,N/A,,Scattered Clouds,0,2013-12-20 23:55:00
6:15 PM,13.6,10.6,88,29.89,10.0,Calm,Calm,-,N/A,,Clear,0,2013-12-21 00:15:00
6:35 PM,14.0,11.7,90,29.89,10.0,Calm,Calm,-,N/A,,Clear,0,2013-12-21 00:35:00
6:55 PM,13.6,12.0,93,29.89,10.0,Calm,Calm,-,N/A,,Scattered Clouds,0,2013-12-21 00:55:00
7:15 PM,10.6,8.1,90,29.88,5.0,Calm,Calm,-,N/A,,Scattered Clouds,0,2013-12-21 01:15:00
7:35 PM,7.7,5.0,89,29.88,1.8,Calm,Calm,-,N/A,,Mist,0,2013-12-21 01:35:00
7:55 PM,9.7,7.7,92,29.88,10.0,Calm,Calm,-,N/A,,Mostly Cloudy,0,2013-12-21 01:55:00
8:15 PM,6.4,3.9,89,29.88,10.0,Calm,Calm,-,N/A,,Overcast,0,2013-12-21 02:15:00
8:35 PM,7.9,5.4,89,29.88,10.0,Calm,Calm,-,N/A,,Overcast,0,2013-12-21 02:35:00
8:55 PM,9.0,6.6,90,29.87,10.0,Calm,Calm,-,N/A,,Overcast,0,2013-12-21 02:55:00
9:15 PM,8.1,5.0,87,29.87,10.0,Calm,Calm,-,N/A,,Overcast,0,2013-12-21 03:15:00
9:35 PM,9.7,7.7,92,29.86,10.0,Calm,Calm,-,N/A,,Overcast,0,2013-12-21 03:35:00
9:55 PM,9.5,7.0,90,29.86,10.0,Calm,Calm,-,N/A,,Overcast,0,2013-12-21 03:55:00
10:15 PM,9.5,7.2,90,29.85,10.0,Calm,Calm,-,N/A,,Overcast,0,2013-12-21 04:15:00
10:35 PM,9.7,7.3,90,29.84,10.0,Calm,Calm,-,N/A,,Overcast,0,2013-12-21 04:35:00
10:55 PM,9.5,7.0,90,29.84,10.0,Calm,Calm,-,N/A,,Overcast,0,2013-12-21 04:55:00
11:15 PM,8.2,5.5,89,29.84,10.0,Calm,Calm,-,N/A,,Overcast,0,2013-12-21 05:15:00
11:35 PM,5.2,1.9,86,29.85,10.0,Calm,Calm,-,N/A,,Scattered Clouds,0,2013-12-21 05:35:00
11:55 PM,5.0,1.8,86,29.85,10.0,Calm,Calm,-,N/A,,Mostly Cloudy,0,2013-12-21 05:55:00